2018-083G (43668 NORAD) Tracking and Keplerian Element Data

This shows tracking and keplerian element data for the satellite.

Feedback or suggestion? Click here.




ElementValue
Catalog43668
Name2018-083G
Epoch Orbit240
Epoch Day317.86691063
Epoch Year2018
RAAN338.6093
Inclination97.5176
Eccentricity0.0009896
Argument of Perigee207.2024
Mean Anonmoly276.565
Mean Motion15.16460959
Decay Rate8.29E-06
L11 43668U 18083G 18317.86691063 .00000829 00000-0 46039-4 0 9991
L22 43668 97.5176 338.6093 0009896 207.2024 276.5650 15.16460959 2408

Live tracking and technical data element details for 2018-083G (NORAD 43668). 2018-083G can be tracked NOW for your location showing map with azimuth and elevation plus other details from your city location.

Track the satellite on the map from your city or location and see movement details for azimuth, elevation, latitude, longitude, range, height, and movement on the map or in text.







IsCatalogInMostPopularTable: catalog: 43668, numindb: 5
Update: records affected: 1



GetName: 43668 2018-083G

Hit Count: updated at: Thu, 15 Nov 2018 04:11:15 GMT